This is the latest recevied weather packets stored in our database for station/object KE7TOP-15. If no packets are shown the sender has not sent any weather packets the latest 10 day(s).
| Time | Temp. | Humidity | Pressure | Rain* | Wind** | Luminosity | Snow |
|---|---|---|---|---|---|---|---|
| 1777552223 | 0.56° C | 82% | 1019.7 hPa | 0 mm | - | 0 W/m² | - |
| 1777551020 | 0.56° C | 87% | 1019.5 hPa | 0 mm | - | 0 W/m² | - |
| 1777549817 | 0° C | 85% | 1019.6 hPa | 0 mm | - | 0 W/m² | - |
| 1777545660 | 0.56° C | 83% | 1019.7 hPa | 0 mm | - | 0 W/m² | - |
| 1777532438 | 5° C | 63% | 1019.4 hPa | 0 mm | - | 0 W/m² | - |
| 1777525837 | 7.78° C | 51% | 1019.4 hPa | 0 mm | - | 0 W/m² | - |
| 1777524644 | 8.33° C | 50% | 1019.3 hPa | 0 mm | - | 0 W/m² | - |
| 1777521644 | 12.22° C | 40% | 1019.1 hPa | 0 mm | - | 0 W/m² | - |
| 1777519819 | 12.22° C | 38% | 1018.7 hPa | 0 mm | - | 0 W/m² | - |
| 1777518616 | 12.78° C | 37% | 1018.4 hPa | 0 mm | - | 0 W/m² | - |
| 1777516821 | 13.89° C | 34% | 1018 hPa | 0 mm | - | 10 W/m² | - |
| 1777514421 | 16.67° C | 27% | 1018.1 hPa | 0 mm | - | 29 W/m² | - |
| 1777513218 | 18.89° C | 24% | 1017.9 hPa | 0 mm | - | 59 W/m² | - |
| 1777510219 | 18.89° C | 20% | 1017.8 hPa | 0 mm | - | 219 W/m² | - |
| 1777509618 | 18.89° C | 20% | 1017.8 hPa | 0 mm | - | 244 W/m² | - |
| 1777509016 | 20° C | 19% | 1017.8 hPa | 0 mm | - | 273 W/m² | - |
| 1777507242 | 19.44° C | 17% | 1017.9 hPa | 0 mm | - | 364 W/m² | - |
| 1777501824 | 18.33° C | 22% | 1018.7 hPa | 0 mm | - | 618 W/m² | - |
| 1777500621 | 18.33° C | 24% | 1018.7 hPa | 0 mm | - | 563 W/m² | - |
| 1777498818 | 18.33° C | 25% | 1019.1 hPa | 0 mm | - | 170 W/m² | - |
| 1777498217 | 18.33° C | 24% | 1019 hPa | 0 mm | - | 834 W/m² | - |
| 1777495823 | 18.89° C | 24% | 1019.2 hPa | 0 mm | - | 837 W/m² | - |
| 1777490424 | 16.67° C | 23% | 1020.4 hPa | 0 mm | - | 800 W/m² | - |
| 1777489823 | 16.67° C | 25% | 1020.4 hPa | 0 mm | - | 799 W/m² | - |
| 1777486218 | 15.56° C | 29% | 1021 hPa | 0 mm | - | 699 W/m² | - |
* Rain latest hour (hover to see other rain measurements)
** Current wind speed in m/s (hover to see current wind gust speed)